Location: Newark
(48.8833°N, 0.9236°W)
Time: 22:17:26
(UTC+00:00)

Tiros 1 despin weight - Pass Details

Date: 19 November 2019
Orbit: 594 x 642 km, 48.2° (Epoch: 13 December)

Event Time Altitude Azimuth Distance (km) Brightness Sun altitude
Rises 12:32:52 0° 204° (SSW) 2,816 ? 21.0°
Reaches altitude 10° 12:35:40 10° 187° (S) 1,918 ? 20.9°
Maximum altitude 12:38:45 19° 142° (SE) 1,437 ? 20.8°
Drops below altitude 10° 12:41:51 10° 97° (E) 1,933 ? 20.6°
Sets 12:44:41 0° 79° (E) 2,845 ? 20.5°
